User: anonymous   Login
Location: Unspecified
(0.0000°N, 0.0000°E)
Time: 11:58:35
(UTC+00:00)
Language:

USA 269 - Orbit

View from above orbital plane
View from above orbital plane
View from above satellite
View from above satellite

Ground track
Ground track

The orbit data is extracted from the following two-line orbital elements,

1 41724U 16047A   17282.60429656 0.00000000  00000-0  00000-0 0    07
2 41724   4.4548 327.9305 0005587  28.1481 331.9066  1.00270000    01
Epoch (UTC): 09 October 2017 14:30:11
Eccentricity: 0.0005587
inclination: 4.4548°
perigee height: 35763 km
apogee height: 35810 km
right ascension of ascending node: 327.9305°
argument of perigee: 28.1481°
revolutions per day: 1.00270000
mean anomaly at epoch: 331.9066°
orbit number at epoch: 0

The dashed part of the orbit path shows where the satellite is in the earth's shadow,  

DLR